,,Stat5,,Stat1,,Stat2,,Stat3,,Stat4,,Wind1,,Wind1
time,status,PA1M_AVG,status,PR1M_SUM,status,RH1M_AVG,status,SR1M_AVG,status,TA1M_AVG,status,W1dAve1m,status,W1sAve1m
2000-09-03, 00:00:00,VALID,917.35,VALID,0,VALID,99.3136,VALID,0.0169808,VALID,19.4433,VALID,66,VALID,0.736762
2000-09-03, 00:01:00,VALID,917.367,VALID,0,VALID,99.2793,VALID,0,VALID,19.4333,VALID,75,VALID,0.758482
2000-09-03, 00:02:00,VALID,917.368,VALID,0,VALID,99.2716,VALID,-0.0169808,VALID,19.4467,VALID,96,VALID,0.852407
2000-09-03, 00:03:00,VALID,917.361,VALID,0,VALID,99.2246,VALID,0,VALID,19.4534,VALID,95,VALID,1.36739
2000-09-03, 00:04:00,VALID,917.346,VALID,0,VALID,99.1763,VALID,0,VALID,19.4467,VALID,105,VALID,1.32454
2000-09-03, 00:05:00,VALID,917.344,VALID,0,VALID,99.1127,VALID,0,VALID,19.4465,VALID,99,VALID,1.09671
2000-09-03, 00:06:00,VALID,917.342,VALID,0,VALID,99.0364,VALID,0,VALID,19.4534,VALID,102,VALID,1.09191
2000-09-03, 00:07:00,VALID,917.328,VALID,0,VALID,99.0008,VALID,0,VALID,19.4532,VALID,100,VALID,1.23522
2000-09-03, 00:08:00,VALID,917.323,VALID,0,VALID,98.9207,VALID,0,VALID,19.4534,VALID,115,VALID,1.29883
2000-09-03, 00:09:00,VALID,917.326,VALID,0,VALID,98.8673,VALID,-0.0169808,VALID,19.4497,VALID,104,VALID,0.929476
2000-09-03, 00:10:00,VALID,917.305,VALID,0,VALID,98.7973,VALID,0,VALID,19.4465,VALID,104,VALID,0.712627
2000-09-03, 00:11:00,VALID,917.305,VALID,0,VALID,98.8113,VALID,0,VALID,19.4435,VALID,104,VALID,0.556836
2000-09-03, 00:12:00,VALID,917.266,VALID,0,VALID,98.7973,VALID,0,VALID,19.4274,VALID,91,VALID,1.07352
2000-09-03, 00:13:00,VALID,917.241,VALID,0,VALID,98.7986,VALID,-0.0169808,VALID,19.4274,VALID,93,VALID,0.526563
2000-09-03, 00:14:00,VALID,917.213,VALID,0,VALID,98.8037,VALID,0,VALID,19.4241,VALID,109,VALID,0.506579
2000-09-03, 00:15:00,VALID,917.197,VALID,0,VALID,98.7922,VALID,-0.0169808,VALID,19.408,VALID,101,VALID,0.270312
2000-09-03, 00:16:00,VALID,917.181,VALID,0,VALID,98.8011,VALID,0,VALID,19.3916,VALID,95,VALID,0.520232
2000-09-03, 00:17:00,VALID,917.16,VALID,0,VALID,98.8177,VALID,0,VALID,19.3826,VALID,83,VALID,0.65332
2000-09-03, 00:18:00,VALID,917.166,VALID,0,VALID,98.8304,VALID,0,VALID,19.3498,VALID,66,VALID,0.509868
2000-09-03, 00:19:00,VALID,917.174,VALID,0,VALID,98.8609,VALID,0,VALID,19.3334,VALID,65,VALID,0.375195
2000-09-03, 00:20:00,VALID,917.182,VALID,0,VALID,98.9156,VALID,0,VALID,19.3304,VALID,22,VALID,0.571514
2000-09-03, 00:21:00,VALID,917.214,VALID,0,VALID,98.9499,VALID,-0.0169808,VALID,19.3272,VALID,328,VALID,0.437891
2000-09-03, 00:22:00,VALID,917.259,VALID,0,VALID,98.9855,VALID,0,VALID,19.3111,VALID,294,VALID,0.512952
2000-09-03, 00:23:00,VALID,917.286,VALID,0,VALID,99.0084,VALID,0,VALID,19.3051,VALID,290,VALID,0.50293
2000-09-03, 00:24:00,VALID,917.315,VALID,0,VALID,99.0529,VALID,0,VALID,19.2852,VALID,278,VALID,0.615184
2000-09-03, 00:25:00,VALID,917.318,VALID,0,VALID,99.0822,VALID,0,VALID,19.2658,VALID,259,VALID,0.777539
2000-09-03, 00:26:00,VALID,917.334,VALID,0,VALID,99.1178,VALID,-0.0169808,VALID,19.2497,VALID,256,VALID,1.05222
2000-09-03, 00:27:00,VALID,917.339,VALID,0,VALID,99.1457,VALID,0,VALID,19.2633,VALID,259,VALID,1.10508
2000-09-03, 00:28:00,VALID,917.311,VALID,0,VALID,99.1826,VALID,0,VALID,19.2467,VALID,284,VALID,0.659255
2000-09-03, 00:29:00,VALID,917.311,VALID,0,VALID,99.2055,VALID,0.0169808,VALID,19.2435,VALID,280,VALID,0.233203
2000-09-03, 00:30:00,VALID,917.312,VALID,0,VALID,99.2233,VALID,0,VALID,19.2335,VALID,302,VALID,0.53125
2000-09-03, 00:31:00,VALID,917.3,VALID,0,VALID,99.2398,VALID,0,VALID,19.2174,VALID,330,VALID,0.299805
2000-09-03, 00:32:00,VALID,917.316,VALID,0,VALID,99.2704,VALID,0,VALID,19.2335,VALID,339,VALID,0.230569
2000-09-03, 00:33:00,VALID,917.319,VALID,0,VALID,99.2869,VALID,0.0169808,VALID,19.2338,VALID,340,VALID,0
2000-09-03, 00:34:00,VALID,917.33,VALID,0,VALID,99.3072,VALID,0,VALID,19.2271,VALID,340,VALID,0
2000-09-03, 00:35:00,VALID,917.334,VALID,0,VALID,99.3263,VALID,-0.0169808,VALID,19.2437,VALID,328,VALID,0
2000-09-03, 00:36:00,VALID,917.337,VALID,0,VALID,99.3517,VALID,0,VALID,19.2497,VALID,325,VALID,0
2000-09-03, 00:37:00,VALID,917.321,VALID,0,VALID,99.3759,VALID,0,VALID,19.2405,VALID,41,VALID,0.242969
2000-09-03, 00:38:00,VALID,917.297,VALID,0,VALID,99.3848,VALID,0,VALID,19.2405,VALID,91,VALID,0.196135
2000-09-03, 00:39:00,VALID,917.27,VALID,0,VALID,99.3962,VALID,-0.0169808,VALID,19.2335,VALID,81,VALID,0.5375
2000-09-03, 00:40:00,VALID,917.242,VALID,0,VALID,99.4331,VALID,-0.0169808,VALID,19.2497,VALID,66,VALID,0.58774
2000-09-03, 00:41:00,VALID,917.227,VALID,0,VALID,99.4484,VALID,0.0169808,VALID,19.2688,VALID,96,VALID,0.264648
2000-09-03, 00:42:00,VALID,917.226,VALID,0,VALID,99.4547,VALID,0,VALID,19.2629,VALID,95,VALID,0
2000-09-03, 00:43:00,VALID,917.231,VALID,0,VALID,99.456,VALID,0.0169808,VALID,19.2562,VALID,138,VALID,0
2000-09-03, 00:44:00,VALID,917.245,VALID,0,VALID,99.4687,VALID,0,VALID,19.2492,VALID,173,VALID,0
2000-09-03, 00:45:00,VALID,917.241,VALID,0,VALID,99.4789,VALID,0.0169808,VALID,19.2795,VALID,141,VALID,0
2000-09-03, 00:46:00,VALID,917.263,VALID,0,VALID,99.4942,VALID,-0.0169808,VALID,19.2822,VALID,128,VALID,0.384046
2000-09-03, 00:47:00,VALID,917.282,VALID,0,VALID,99.5056,VALID,0,VALID,19.2889,VALID,129,VALID,0.71875
2000-09-03, 00:48:00,VALID,917.29,VALID,0,VALID,99.4954,VALID,-0.0169808,VALID,19.2755,VALID,121,VALID,0.929087
2000-09-03, 00:49:00,VALID,917.321,VALID,0,VALID,99.484,VALID,-0.0169808,VALID,19.2763,VALID,123,VALID,1.33008
2000-09-03, 00:50:00,VALID,917.325,VALID,0,VALID,99.4916,VALID,0,VALID,19.2696,VALID,121,VALID,1.39926
2000-09-03, 00:51:00,VALID,917.348,VALID,0,VALID,99.4865,VALID,-0.0169808,VALID,19.2696,VALID,127,VALID,1.29648
2000-09-03, 00:52:00,VALID,917.356,VALID,0,VALID,99.4802,VALID,0.0169808,VALID,19.2862,VALID,136,VALID,1.23738
2000-09-03, 00:53:00,VALID,917.375,VALID,0,VALID,99.47,VALID,0,VALID,19.2755,VALID,141,VALID,1.10039
2000-09-03, 00:54:00,VALID,917.375,VALID,0,VALID,99.4573,VALID,-0.0169808,VALID,19.2626,VALID,162,VALID,0.843133
2000-09-03, 00:55:00,VALID,917.385,VALID,0,VALID,99.4509,VALID,0,VALID,19.2599,VALID,179,VALID,0.847266
2000-09-03, 00:56:00,VALID,917.383,VALID,0,VALID,99.4764,VALID,0,VALID,19.2629,VALID,185,VALID,0.65024
2000-09-03, 00:57:00,VALID,917.373,VALID,0,VALID,99.4891,VALID,0,VALID,19.2562,VALID,202,VALID,0.971484
2000-09-03, 00:58:00,VALID,917.368,VALID,0,VALID,99.4967,VALID,-0.0339617,VALID,19.2529,VALID,204,VALID,1.10218
2000-09-03, 00:59:00,VALID,917.34,VALID,0,VALID,99.5094,VALID,-0.0849042,VALID,19.2666,VALID,204,VALID,0.780859
2000-09-03, 01:00:00,VALID,917.327,VALID,0,VALID,99.5221,VALID,-0.101885,VALID,19.2705,VALID,210,VALID,0.782853
2000-09-03, 01:01:00,VALID,917.305,VALID,0,VALID,99.5387,VALID,-0.101885,VALID,19.2675,VALID,202,VALID,0.510938
2000-09-03, 01:02:00,VALID,917.289,VALID,0,VALID,99.5514,VALID,-0.0849042,VALID,19.2638,VALID,172,VALID,0.566201
2000-09-03, 01:03:00,VALID,917.263,VALID,0,VALID,99.5552,VALID,-0.101885,VALID,19.277,VALID,179,VALID,0.694336
2000-09-03, 01:04:00,VALID,917.243,VALID,0,VALID,99.545,VALID,-0.101885,VALID,19.2671,VALID,163,VALID,0.657252
2000-09-03, 01:05:00,VALID,917.236,VALID,0,VALID,99.5616,VALID,-0.0849042,VALID,19.2671,VALID,180,VALID,0.639063
2000-09-03, 01:06:00,VALID,917.223,VALID,0,VALID,99.5641,VALID,-0.0849042,VALID,19.2641,VALID,179,VALID,0.522615
2000-09-03, 01:07:00,VALID,917.207,VALID,0,VALID,99.5844,VALID,-0.0849042,VALID,19.2636,VALID,187,VALID,0.647852
2000-09-03, 01:08:00,VALID,917.211,VALID,0,VALID,99.601,VALID,-0.101885,VALID,19.2671,VALID,196,VALID,0.71234
2000-09-03, 01:09:00,VALID,917.209,VALID,0,VALID,99.6188,VALID,-0.101885,VALID,19.2869,VALID,193,VALID,0.597656
2000-09-03, 01:10:00,VALID,917.202,VALID,0,VALID,99.6086,VALID,-0.101885,VALID,19.2931,VALID,200,VALID,0.575863
2000-09-03, 01:11:00,VALID,917.207,VALID,0,VALID,99.6251,VALID,-0.118866,VALID,19.2839,VALID,208,VALID,0.56582
2000-09-03, 01:12:00,VALID,917.223,VALID,0,VALID,99.6302,VALID,-0.101885,VALID,19.2874,VALID,209,VALID,0.492388
2000-09-03, 01:13:00,VALID,917.231,VALID,0,VALID,99.6391,VALID,-0.118866,VALID,19.2834,VALID,242,VALID,0.536523
2000-09-03, 01:14:00,VALID,917.236,VALID,0,VALID,99.6417,VALID,-0.0169808,VALID,19.2989,VALID,228,VALID,0.809827
2000-09-03, 01:15:00,VALID,917.258,VALID,0,VALID,99.648,VALID,0,VALID,19.2917,VALID,243,VALID,0.716211
2000-09-03, 01:16:00,VALID,917.255,VALID,0,VALID,99.6468,VALID,0,VALID,19.2952,VALID,235,VALID,0.571314
2000-09-03, 01:17:00,VALID,917.253,VALID,0,VALID,99.662,VALID,0,VALID,19.2954,VALID,242,VALID,0.217578
2000-09-03, 01:18:00,VALID,917.219,VALID,0,VALID,99.6607,VALID,0,VALID,19.2984,VALID,276,VALID,0.219367
2000-09-03, 01:19:00,VALID,917.199,VALID,0,VALID,99.6684,VALID,0,VALID,19.2917,VALID,9,VALID,0.601172
2000-09-03, 01:20:00,VALID,917.171,VALID,0,VALID,99.6798,VALID,0.0509425,VALID,19.2917,VALID,20,VALID,0.510617
2000-09-03, 01:21:00,VALID,917.147,VALID,0,VALID,99.676,VALID,0.0679233,VALID,19.2917,VALID,69,VALID,0.5375
2000-09-03, 01:22:00,VALID,917.116,VALID,0,VALID,99.6925,VALID,0,VALID,19.2947,VALID,89,VALID,0.388158
2000-09-03, 01:23:00,VALID,917.09,VALID,0,VALID,99.6989,VALID,0,VALID,19.3173,VALID,96,VALID,0.545313
2000-09-03, 01:24:00,VALID,917.056,VALID,0,VALID,99.7014,VALID,-0.0169808,VALID,19.3272,VALID,100,VALID,0.832131
2000-09-03, 01:25:00,VALID,917.043,VALID,0,VALID,99.7116,VALID,0,VALID,19.3334,VALID,103,VALID,0.599414
2000-09-03, 01:26:00,VALID,917.033,VALID,0,VALID,99.7218,VALID,0,VALID,19.3431,VALID,102,VALID,0.146382
2000-09-03, 01:27:00,VALID,917.014,VALID,0,VALID,99.7154,VALID,-0.0339617,VALID,19.3302,VALID,102,VALID,0
2000-09-03, 01:28:00,VALID,917.016,VALID,0,VALID,99.723,VALID,0.0169808,VALID,19.3074,VALID,102,VALID,0
2000-09-03, 01:29:00,VALID,916.998,VALID,0,VALID,99.7205,VALID,-0.0169808,VALID,19.3138,VALID,102,VALID,0
2000-09-03, 01:30:00,VALID,917.004,VALID,0,VALID,99.7218,VALID,0.0169808,VALID,19.3014,VALID,102,VALID,0
2000-09-03, 01:31:00,VALID,916.986,VALID,0,VALID,99.7129,VALID,0,VALID,19.2887,VALID,102,VALID,0
2000-09-03, 01:32:00,VALID,916.97,VALID,0,VALID,99.7167,VALID,0,VALID,19.2758,VALID,102,VALID,0
2000-09-03, 01:33:00,VALID,916.956,VALID,0,VALID,99.718,VALID,0,VALID,19.2532,VALID,102,VALID,0
2000-09-03, 01:34:00,VALID,916.941,VALID,0,VALID,99.7256,VALID,0,VALID,19.2502,VALID,102,VALID,0
2000-09-03, 01:35:00,VALID,916.915,VALID,0,VALID,99.7205,VALID,-0.0169808,VALID,19.2462,VALID,102,VALID,0
2000-09-03, 01:36:00,VALID,916.933,VALID,0,VALID,99.7345,VALID,0,VALID,19.2529,VALID,102,VALID,0
2000-09-03, 01:37:00,VALID,916.959,VALID,0,VALID,99.7459,VALID,0.0169808,VALID,19.2594,VALID,102,VALID,0
2000-09-03, 01:38:00,VALID,916.984,VALID,0,VALID,99.7383,VALID,0,VALID,19.2365,VALID,102,VALID,0
2000-09-03, 01:39:00,VALID,916.999,VALID,0,VALID,99.7396,VALID,-0.0339617,VALID,19.237,VALID,102,VALID,0
2000-09-03, 01:40:00,VALID,917.007,VALID,0,VALID,99.7447,VALID,-0.0339617,VALID,19.2206,VALID,102,VALID,0
2000-09-03, 01:41:00,VALID,917.001,VALID,0,VALID,99.7485,VALID,0,VALID,19.24,VALID,102,VALID,0
2000-09-03, 01:42:00,VALID,916.986,VALID,0,VALID,99.7561,VALID,0,VALID,19.2534,VALID,102,VALID,0
2000-09-03, 01:43:00,VALID,916.976,VALID,0,VALID,99.7574,VALID,0.0169808,VALID,19.2465,VALID,102,VALID,0
2000-09-03, 01:44:00,VALID,916.96,VALID,0,VALID,99.7561,VALID,0,VALID,19.2395,VALID,102,VALID,0
2000-09-03, 01:45:00,VALID,916.951,VALID,0,VALID,99.7587,VALID,-0.0169808,VALID,19.2499,VALID,102,VALID,0
2000-09-03, 01:46:00,VALID,916.939,VALID,0,VALID,99.7612,VALID,0,VALID,19.2497,VALID,124,VALID,0
2000-09-03, 01:47:00,VALID,916.947,VALID,0,VALID,99.7548,VALID,0.0169808,VALID,19.2599,VALID,176,VALID,0
2000-09-03, 01:48:00,VALID,916.955,VALID,0,VALID,99.7408,VALID,0,VALID,19.2204,VALID,176,VALID,0.291667
2000-09-03, 01:49:00,VALID,916.967,VALID,0,VALID,99.7396,VALID,0.0169808,VALID,19.2045,VALID,194,VALID,0.6625
2000-09-03, 01:50:00,VALID,916.986,VALID,0,VALID,99.751,VALID,0,VALID,19.2042,VALID,207,VALID,0.316201
2000-09-03, 01:51:00,VALID,916.983,VALID,0,VALID,99.7599,VALID,0,VALID,19.2042,VALID,239,VALID,0.384961
2000-09-03, 01:52:00,VALID,916.98,VALID,0,VALID,99.7777,VALID,-0.0339617,VALID,19.2042,VALID,248,VALID,0.301883
2000-09-03, 01:53:00,VALID,916.96,VALID,0,VALID,99.7765,VALID,0,VALID,19.2077,VALID,238,VALID,0
2000-09-03, 01:54:00,VALID,916.927,VALID,0,VALID,99.779,VALID,0,VALID,19.1945,VALID,234,VALID,0
2000-09-03, 01:55:00,VALID,916.898,VALID,0,VALID,99.7841,VALID,0.0169808,VALID,19.2075,VALID,235,VALID,0
2000-09-03, 01:56:00,VALID,916.845,VALID,0,VALID,99.7892,VALID,0,VALID,19.2174,VALID,231,VALID,0
2000-09-03, 01:57:00,VALID,916.799,VALID,0,VALID,99.7993,VALID,0,VALID,19.2146,VALID,230,VALID,0
2000-09-03, 01:58:00,VALID,916.757,VALID,0,VALID,99.793,VALID,0,VALID,19.2075,VALID,230,VALID,0
2000-09-03, 01:59:00,VALID,916.728,VALID,0,VALID,99.7815,VALID,0,VALID,19.1786,VALID,230,VALID,0
2000-09-03, 02:00:00,VALID,916.7,VALID,0,VALID,99.7993,VALID,0,VALID,19.1819,VALID,230,VALID,0
2000-09-03, 02:01:00,VALID,916.708,VALID,0,VALID,99.7841,VALID,0,VALID,19.1657,VALID,230,VALID,0
2000-09-03, 02:02:00,VALID,916.701,VALID,0,VALID,99.7904,VALID,0.0169808,VALID,19.1625,VALID,230,VALID,0
2000-09-03, 02:03:00,VALID,916.719,VALID,0,VALID,99.7701,VALID,0.0169808,VALID,19.1429,VALID,238,VALID,0
2000-09-03, 02:04:00,VALID,916.726,VALID,0,VALID,99.7625,VALID,0.0169808,VALID,19.1168,VALID,219,VALID,0
2000-09-03, 02:05:00,VALID,916.735,VALID,0,VALID,99.7688,VALID,0,VALID,19.111,VALID,211,VALID,0
2000-09-03, 02:06:00,VALID,916.743,VALID,0,VALID,99.7612,VALID,0,VALID,19.0879,VALID,202,VALID,0.491365
2000-09-03, 02:07:00,VALID,916.736,VALID,0,VALID,99.7675,VALID,-0.0169808,VALID,19.0753,VALID,198,VALID,0.922852
2000-09-03, 02:08:00,VALID,916.736,VALID,0,VALID,99.7739,VALID,-0.0339617,VALID,19.0693,VALID,190,VALID,1.1246
2000-09-03, 02:09:00,VALID,916.743,VALID,0,VALID,99.779,VALID,-0.0509425,VALID,19.0663,VALID,192,VALID,0.973242
2000-09-03, 02:10:00,VALID,916.743,VALID,0,VALID,99.779,VALID,0,VALID,19.0338,VALID,191,VALID,1.09827
2000-09-03, 02:11:00,VALID,916.767,VALID,0,VALID,99.7803,VALID,-0.0509425,VALID,19.0114,VALID,201,VALID,0.817969
2000-09-03, 02:12:00,VALID,916.785,VALID,0,VALID,99.7777,VALID,-0.0339617,VALID,18.9922,VALID,201,VALID,0.834736
2000-09-03, 02:13:00,VALID,916.783,VALID,0,VALID,99.793,VALID,0,VALID,18.9791,VALID,202,VALID,0.918945
2000-09-03, 02:14:00,VALID,916.784,VALID,0,VALID,99.8121,VALID,-0.0169808,VALID,18.9694,VALID,203,VALID,0.945107
2000-09-03, 02:15:00,VALID,916.763,VALID,0,VALID,99.8095,VALID,-0.0169808,VALID,18.9634,VALID,199,VALID,0.957227
2000-09-03, 02:16:00,VALID,916.762,VALID,0,VALID,99.8171,VALID,-0.0169808,VALID,18.9368,VALID,195,VALID,0.939303
2000-09-03, 02:17:00,VALID,916.766,VALID,0,VALID,99.8171,VALID,0,VALID,18.9341,VALID,189,VALID,1.31484
2000-09-03, 02:18:00,VALID,916.769,VALID,0,VALID,99.8375,VALID,-0.0339617,VALID,18.9011,VALID,191,VALID,1.33265
2000-09-03, 02:19:00,VALID,916.782,VALID,0,VALID,99.8553,VALID,-0.0169808,VALID,18.9011,VALID,190,VALID,0.9375
2000-09-03, 02:20:00,VALID,916.777,VALID,0,VALID,99.8693,VALID,0,VALID,18.9011,VALID,185,VALID,1.32171
2000-09-03, 02:21:00,VALID,916.786,VALID,0,VALID,99.8884,VALID,0.0169808,VALID,18.9304,VALID,187,VALID,1.58691
2000-09-03, 02:22:00,VALID,916.769,VALID,0,VALID,99.8934,VALID,-0.0169808,VALID,18.9465,VALID,193,VALID,1.27858
2000-09-03, 02:23:00,VALID,916.769,VALID,0,VALID,99.8909,VALID,0,VALID,18.9371,VALID,192,VALID,1.34941
2000-09-03, 02:24:00,VALID,916.76,VALID,0,VALID,99.8934,VALID,-0.0339617,VALID,18.9209,VALID,202,VALID,1.14904
2000-09-03, 02:25:00,VALID,916.754,VALID,0,VALID,99.9036,VALID,0,VALID,18.9175,VALID,195,VALID,1.26621
2000-09-03, 02:26:00,VALID,916.744,VALID,0,VALID,99.9049,VALID,0,VALID,18.9083,VALID,202,VALID,0.652755
2000-09-03, 02:27:00,VALID,916.727,VALID,0,VALID,99.9112,VALID,-0.0169808,VALID,18.9115,VALID,182,VALID,0.920898
2000-09-03, 02:28:00,VALID,916.712,VALID,0,VALID,99.9125,VALID,-0.0169808,VALID,18.8986,VALID,187,VALID,1.05128
2000-09-03, 02:29:00,VALID,916.722,VALID,0,VALID,99.8973,VALID,0,VALID,18.8789,VALID,194,VALID,0.724805
2000-09-03, 02:30:00,VALID,916.721,VALID,0,VALID,99.9011,VALID,0,VALID,18.866,VALID,207,VALID,0.901727
2000-09-03, 02:31:00,VALID,916.721,VALID,0,VALID,99.9303,VALID,0,VALID,18.8556,VALID,206,VALID,1.19141
2000-09-03, 02:32:00,VALID,916.707,VALID,0,VALID,99.9379,VALID,0,VALID,18.8891,VALID,194,VALID,0.868189
2000-09-03, 02:33:00,VALID,916.691,VALID,0,VALID,99.9456,VALID,-0.0339617,VALID,18.905,VALID,185,VALID,1.13047
2000-09-03, 02:34:00,VALID,916.675,VALID,0,VALID,99.929,VALID,0,VALID,18.8919,VALID,157,VALID,0.83347
2000-09-03, 02:35:00,VALID,916.649,VALID,0,VALID,99.9151,VALID,-0.0339617,VALID,18.87,VALID,159,VALID,0.703711
2000-09-03, 02:36:00,VALID,916.643,VALID,0,VALID,99.9303,VALID,0,VALID,18.834,VALID,175,VALID,0.947917
2000-09-03, 02:37:00,VALID,916.661,VALID,0,VALID,99.9392,VALID,-0.0169808,VALID,18.8307,VALID,204,VALID,1.00117
2000-09-03, 02:38:00,VALID,916.68,VALID,0,VALID,99.9354,VALID,-0.0169808,VALID,18.8203,VALID,220,VALID,1.02056
2000-09-03, 02:39:00,VALID,916.689,VALID,0,VALID,99.9468,VALID,0,VALID,18.8111,VALID,221,VALID,1.00039
2000-09-03, 02:40:00,VALID,916.705,VALID,0,VALID,99.9647,VALID,-0.0169808,VALID,18.8141,VALID,218,VALID,1.14423
2000-09-03, 02:41:00,VALID,916.697,VALID,0,VALID,99.9774,VALID,-0.0509425,VALID,18.8399,VALID,207,VALID,0.936719
2000-09-03, 02:42:00,VALID,916.686,VALID,0,VALID,99.9761,VALID,-0.0169808,VALID,18.86,VALID,207,VALID,0.93935
2000-09-03, 02:43:00,VALID,916.659,VALID,0,VALID,99.9659,VALID,-0.0339617,VALID,18.8536,VALID,185,VALID,0.759375
2000-09-03, 02:44:00,VALID,916.635,VALID,0,VALID,99.9921,VALID,0,VALID,18.8471,VALID,172,VALID,1.04387
2000-09-03, 02:45:00,VALID,916.607,VALID,0,VALID,99.9809,VALID,0.0169808,VALID,18.8633,VALID,163,VALID,0.723828
2000-09-03, 02:46:00,VALID,916.581,VALID,0,VALID,99.9723,VALID,-0.0169808,VALID,18.824,VALID,163,VALID,0.716077
2000-09-03, 02:47:00,VALID,916.576,VALID,0,VALID,99.9896,VALID,-0.0169808,VALID,18.8208,VALID,162,VALID,0.739258
2000-09-03, 02:48:00,VALID,916.569,VALID,0,VALID,99.998,VALID,-0.0169808,VALID,18.827,VALID,175,VALID,0.691907
2000-09-03, 02:49:00,VALID,916.578,VALID,0,VALID,99.999,VALID,0,VALID,18.8437,VALID,180,VALID,0.784961
2000-09-03, 02:50:00,VALID,916.59,VALID,0,VALID,99.999,VALID,0,VALID,18.8499,VALID,188,VALID,0.847656
2000-09-03, 02:51:00,VALID,916.593,VALID,0,VALID,100,VALID,-0.0169808,VALID,18.866,VALID,183,VALID,0.839258
2000-09-03, 02:52:00,VALID,916.595,VALID,0,VALID,99.9786,VALID,0,VALID,18.8439,VALID,165,VALID,0.812099
2000-09-03, 02:53:00,VALID,916.599,VALID,0,VALID,99.9908,VALID,0,VALID,18.8466,VALID,182,VALID,0.770703
2000-09-03, 02:54:00,VALID,916.602,VALID,0,VALID,99.9896,VALID,-0.0169808,VALID,18.8501,VALID,172,VALID,0.812089
2000-09-03, 02:55:00,VALID,916.589,VALID,0,VALID,99.9735,VALID,0,VALID,18.86,VALID,171,VALID,0.500195
2000-09-03, 02:56:00,VALID,916.57,VALID,0,VALID,99.9634,VALID,-0.0509425,VALID,18.8407,VALID,162,VALID,0.557492
2000-09-03, 02:57:00,VALID,916.565,VALID,0,VALID,99.9557,VALID,-0.0509425,VALID,18.8173,VALID,176,VALID,0.243555
2000-09-03, 02:58:00,VALID,916.549,VALID,0,VALID,99.943,VALID,0,VALID,18.8146,VALID,190,VALID,0.524054
2000-09-03, 02:59:00,VALID,916.544,VALID,0,VALID,99.9532,VALID,-0.0169808,VALID,18.8114,VALID,194,VALID,0.83125
2000-09-03, 03:00:00,VALID,916.545,VALID,0,VALID,99.9519,VALID,0,VALID,18.824,VALID,191,VALID,0.953526
2000-09-03, 03:01:00,VALID,916.529,VALID,0,VALID,99.9634,VALID,0,VALID,18.8466,VALID,193,VALID,0.836328
2000-09-03, 03:02:00,VALID,916.521,VALID,0,VALID,99.9507,VALID,0,VALID,18.8362,VALID,195,VALID,0.84375
2000-09-03, 03:03:00,VALID,916.497,VALID,0,VALID,99.9367,VALID,0,VALID,18.8628,VALID,191,VALID,0.907617
2000-09-03, 03:04:00,VALID,916.484,VALID,0,VALID,99.9316,VALID,0,VALID,18.8464,VALID,192,VALID,0.884014
2000-09-03, 03:05:00,VALID,916.438,VALID,0,VALID,99.9367,VALID,0,VALID,18.8556,VALID,192,VALID,0.805664
2000-09-03, 03:06:00,VALID,916.41,VALID,0,VALID,99.9074,VALID,0,VALID,18.8559,VALID,179,VALID,0.729441
2000-09-03, 03:07:00,VALID,916.38,VALID,0,VALID,99.9074,VALID,0,VALID,18.8496,VALID,198,VALID,0.882617
2000-09-03, 03:08:00,VALID,916.337,VALID,0,VALID,99.8858,VALID,0,VALID,18.8399,VALID,205,VALID,1.30849
2000-09-03, 03:09:00,VALID,916.3,VALID,0,VALID,99.8807,VALID,-0.0169808,VALID,18.837,VALID,211,VALID,1.22812
2000-09-03, 03:10:00,VALID,916.27,VALID,0,VALID,99.896,VALID,0,VALID,18.8273,VALID,217,VALID,1.43215
2000-09-03, 03:11:00,VALID,916.262,VALID,0,VALID,99.8871,VALID,-0.0169808,VALID,18.8399,VALID,209,VALID,1.07813
2000-09-03, 03:12:00,VALID,916.262,VALID,0,VALID,99.8667,VALID,0,VALID,18.8434,VALID,196,VALID,0.974559
2000-09-03, 03:13:00,VALID,916.254,VALID,0,VALID,99.8744,VALID,-0.0169808,VALID,18.8437,VALID,198,VALID,1.03008
2000-09-03, 03:14:00,VALID,916.244,VALID,0,VALID,99.8553,VALID,0,VALID,18.8524,VALID,190,VALID,0.974712
2000-09-03, 03:15:00,VALID,916.254,VALID,0,VALID,99.8426,VALID,-0.0169808,VALID,18.8437,VALID,177,VALID,0.683008
2000-09-03, 03:16:00,VALID,916.264,VALID,0,VALID,99.8388,VALID,0,VALID,18.8238,VALID,166,VALID,0.0198317
2000-09-03, 03:17:00,VALID,916.271,VALID,0,VALID,99.8159,VALID,-0.0169808,VALID,18.7716,VALID,163,VALID,0
2000-09-03, 03:18:00,VALID,916.28,VALID,0,VALID,99.807,VALID,-0.0169808,VALID,18.7433,VALID,138,VALID,0
2000-09-03, 03:19:00,VALID,916.264,VALID,0,VALID,99.8197,VALID,-0.0339617,VALID,18.7405,VALID,347,VALID,0.417969
2000-09-03, 03:20:00,VALID,916.274,VALID,0,VALID,99.8388,VALID,-0.0339617,VALID,18.7269,VALID,348,VALID,0.794872
2000-09-03, 03:21:00,VALID,916.266,VALID,0,VALID,99.8706,VALID,-0.0339617,VALID,18.7435,VALID,345,VALID,0.761328
2000-09-03, 03:22:00,VALID,916.266,VALID,0,VALID,99.882,VALID,-0.0169808,VALID,18.7403,VALID,349,VALID,0.854441
2000-09-03, 03:23:00,VALID,916.253,VALID,0,VALID,99.8833,VALID,-0.0339617,VALID,18.7308,VALID,323,VALID,0.20918
2000-09-03, 03:24:00,VALID,916.254,VALID,0,VALID,99.8871,VALID,-0.0169808,VALID,18.7015,VALID,343,VALID,0.280849
2000-09-03, 03:25:00,VALID,916.242,VALID,0,VALID,99.8845,VALID,-0.0169808,VALID,18.6948,VALID,14,VALID,0.169922
2000-09-03, 03:26:00,VALID,916.231,VALID,0,VALID,99.896,VALID,-0.0679233,VALID,18.6889,VALID,321,VALID,0
2000-09-03, 03:27:00,VALID,916.202,VALID,0,VALID,99.8947,VALID,-0.0169808,VALID,18.6727,VALID,308,VALID,0
2000-09-03, 03:28:00,VALID,916.191,VALID,0,VALID,99.8845,VALID,-0.0169808,VALID,18.6436,VALID,308,VALID,0
2000-09-03, 03:29:00,VALID,916.176,VALID,0,VALID,99.8782,VALID,0.0339617,VALID,18.6263,VALID,305,VALID,0
2000-09-03, 03:30:00,VALID,916.181,VALID,0,VALID,99.8896,VALID,0.0849042,VALID,18.6099,VALID,248,VALID,0
2000-09-03, 03:31:00,VALID,916.184,VALID,0,VALID,99.929,VALID,0.0849042,VALID,18.6231,VALID,229,VALID,0
2000-09-03, 03:32:00,VALID,916.194,VALID,0,VALID,99.9443,VALID,0.0679233,VALID,18.639,VALID,200,VALID,0.64984
2000-09-03, 03:33:00,VALID,916.22,VALID,0,VALID,99.9481,VALID,0.0509425,VALID,18.6584,VALID,198,VALID,0.881445
2000-09-03, 03:34:00,VALID,916.252,VALID,0,VALID,99.943,VALID,0.0509425,VALID,18.6616,VALID,203,VALID,0.713199
2000-09-03, 03:35:00,VALID,916.281,VALID,0,VALID,99.924,VALID,0.0849042,VALID,18.6455,VALID,185,VALID,0.919531
2000-09-03, 03:36:00,VALID,916.308,VALID,0,VALID,99.9278,VALID,0.0849042,VALID,18.6321,VALID,188,VALID,1.04908
2000-09-03, 03:37:00,VALID,916.329,VALID,0,VALID,99.9278,VALID,0.0679233,VALID,18.6226,VALID,211,VALID,0.628516
2000-09-03, 03:38:00,VALID,916.337,VALID,0,VALID,99.9443,VALID,0.0679233,VALID,18.6383,VALID,224,VALID,0.691406
2000-09-03, 03:39:00,VALID,916.34,VALID,0,VALID,99.9418,VALID,0.0849042,VALID,18.6392,VALID,235,VALID,0.626562
2000-09-03, 03:40:00,VALID,916.345,VALID,0,VALID,99.9354,VALID,0.0679233,VALID,18.6422,VALID,236,VALID,0.717949
2000-09-03, 03:41:00,VALID,916.351,VALID,0,VALID,99.9329,VALID,0.101885,VALID,18.6489,VALID,270,VALID,0.401953